Year,Month,Day,Hour,Minute,Value (Times are PST for temperature in C)
2015,03,10,00,00,4.90
2015,03,10,00,01,4.90
2015,03,10,00,02,4.90
2015,03,10,00,03,4.90
2015,03,10,00,04,4.80
2015,03,10,00,05,4.80
2015,03,10,00,06,4.80
2015,03,10,00,07,4.80
2015,03,10,00,08,4.80
2015,03,10,00,09,4.80
2015,03,10,00,10,4.80
2015,03,10,00,11,4.70
2015,03,10,00,12,4.70
2015,03,10,00,13,4.70
2015,03,10,00,14,4.70
2015,03,10,00,15,4.70
2015,03,10,00,16,4.70
2015,03,10,00,17,4.70
2015,03,10,00,18,4.70
2015,03,10,00,19,4.70
2015,03,10,00,20,4.70
2015,03,10,00,21,4.70
2015,03,10,00,22,4.60
2015,03,10,00,23,4.60
2015,03,10,00,24,4.70
2015,03,10,00,25,4.70
2015,03,10,00,26,4.70
2015,03,10,00,27,4.70
2015,03,10,00,28,4.70
2015,03,10,00,29,4.70
2015,03,10,00,30,4.70
2015,03,10,00,31,4.80
2015,03,10,00,32,4.80
2015,03,10,00,33,4.80
2015,03,10,00,34,4.80
2015,03,10,00,35,4.80
2015,03,10,00,36,4.80
2015,03,10,00,37,4.80
2015,03,10,00,38,4.80
2015,03,10,00,39,4.80
2015,03,10,00,40,4.80
2015,03,10,00,41,4.80
2015,03,10,00,42,4.80
2015,03,10,00,43,4.80
2015,03,10,00,44,4.80
2015,03,10,00,45,4.80
2015,03,10,00,46,4.80
2015,03,10,00,47,4.80
2015,03,10,00,48,4.80
2015,03,10,00,49,4.80
2015,03,10,00,50,4.80
2015,03,10,00,51,4.80
2015,03,10,00,52,4.80
2015,03,10,00,53,4.80
2015,03,10,00,54,4.80
2015,03,10,00,55,4.80
2015,03,10,00,56,4.80
2015,03,10,00,57,4.80
2015,03,10,00,58,4.80
2015,03,10,00,59,4.80
2015,03,10,01,00,4.70
2015,03,10,01,01,4.70
2015,03,10,01,02,4.70
2015,03,10,01,03,4.70
2015,03,10,01,04,4.70
2015,03,10,01,05,4.70
2015,03,10,01,06,4.70
2015,03,10,01,07,4.70
2015,03,10,01,08,4.70
2015,03,10,01,09,4.70
2015,03,10,01,10,4.70
2015,03,10,01,11,4.70
2015,03,10,01,12,4.70
2015,03,10,01,13,4.70
2015,03,10,01,14,4.70
2015,03,10,01,15,4.70
2015,03,10,01,16,4.70
2015,03,10,01,17,4.70
2015,03,10,01,18,4.70
2015,03,10,01,19,4.70
2015,03,10,01,20,4.70
2015,03,10,01,21,4.80
2015,03,10,01,22,4.80
2015,03,10,01,23,4.80
2015,03,10,01,24,4.90
2015,03,10,01,25,4.90
2015,03,10,01,26,4.90
2015,03,10,01,27,4.90
2015,03,10,01,28,4.90
2015,03,10,01,29,5.00
2015,03,10,01,30,5.00
2015,03,10,01,31,5.00
2015,03,10,01,32,5.00
2015,03,10,01,33,5.00
2015,03,10,01,34,5.10
2015,03,10,01,35,5.10
2015,03,10,01,36,5.10
2015,03,10,01,37,5.10
2015,03,10,01,38,5.10
2015,03,10,01,39,5.10
2015,03,10,01,40,5.10
2015,03,10,01,41,5.10
2015,03,10,01,42,5.10
2015,03,10,01,43,5.20
2015,03,10,01,44,5.20
2015,03,10,01,45,5.20
2015,03,10,01,46,5.20
2015,03,10,01,47,5.20
2015,03,10,01,48,5.20
2015,03,10,01,49,5.30
2015,03,10,01,50,5.30
2015,03,10,01,51,5.30
2015,03,10,01,52,5.30
2015,03,10,01,53,5.30
2015,03,10,01,54,5.30
2015,03,10,01,55,5.30
2015,03,10,01,56,5.30
2015,03,10,01,57,5.30
2015,03,10,01,58,5.30
2015,03,10,01,59,5.30
2015,03,10,02,00,5.30
2015,03,10,02,01,5.30
2015,03,10,02,02,5.30
2015,03,10,02,03,5.30
2015,03,10,02,04,5.30
2015,03,10,02,05,5.30
2015,03,10,02,06,5.30
2015,03,10,02,07,5.30
2015,03,10,02,08,5.30
2015,03,10,02,09,5.30
2015,03,10,02,10,5.30
2015,03,10,02,11,5.30
2015,03,10,02,12,5.20
2015,03,10,02,13,5.20
2015,03,10,02,14,5.20
2015,03,10,02,15,5.20
2015,03,10,02,16,5.20
2015,03,10,02,17,5.20
2015,03,10,02,18,5.20
2015,03,10,02,19,5.20
2015,03,10,02,20,5.20
2015,03,10,02,21,5.20
2015,03,10,02,22,5.20
2015,03,10,02,23,5.20
2015,03,10,02,24,5.20
2015,03,10,02,25,5.20
2015,03,10,02,26,5.20
2015,03,10,02,27,5.20
2015,03,10,02,28,5.20
2015,03,10,02,29,5.20
2015,03,10,02,30,5.20
2015,03,10,02,31,5.20
2015,03,10,02,32,5.20
2015,03,10,02,33,5.20
2015,03,10,02,34,5.20
2015,03,10,02,35,5.20
2015,03,10,02,36,5.20
2015,03,10,02,37,5.30
2015,03,10,02,38,5.30
2015,03,10,02,39,5.30
2015,03,10,02,40,5.30
2015,03,10,02,41,5.30
2015,03,10,02,42,5.30
2015,03,10,02,43,5.30
2015,03,10,02,44,5.30
2015,03,10,02,45,5.30
2015,03,10,02,46,5.30
2015,03,10,02,47,5.30
2015,03,10,02,48,5.30
2015,03,10,02,49,5.30
2015,03,10,02,50,5.30
2015,03,10,02,51,5.30
2015,03,10,02,52,5.40
2015,03,10,02,53,5.40
2015,03,10,02,54,5.40
2015,03,10,02,55,5.40
2015,03,10,02,56,5.40
2015,03,10,02,57,5.40
2015,03,10,02,58,5.40
2015,03,10,02,59,5.40
2015,03,10,03,00,5.40
2015,03,10,03,01,5.40
2015,03,10,03,02,5.40
2015,03,10,03,03,5.30
2015,03,10,03,04,5.30
2015,03,10,03,05,5.30
2015,03,10,03,06,5.30
2015,03,10,03,07,5.30
2015,03,10,03,08,5.30
2015,03,10,03,09,5.30
2015,03,10,03,10,5.30
2015,03,10,03,11,5.30
2015,03,10,03,12,5.30
2015,03,10,03,13,5.30
2015,03,10,03,14,5.30
2015,03,10,03,15,5.30
2015,03,10,03,16,5.30
2015,03,10,03,17,5.30
2015,03,10,03,18,5.30
2015,03,10,03,19,5.30
2015,03,10,03,20,5.30
2015,03,10,03,21,5.30
2015,03,10,03,22,5.30
2015,03,10,03,23,5.30
2015,03,10,03,24,5.30
2015,03,10,03,25,5.30
2015,03,10,03,26,5.30
2015,03,10,03,27,5.30
2015,03,10,03,28,5.30
2015,03,10,03,29,5.30
2015,03,10,03,30,5.30
2015,03,10,03,31,5.30
2015,03,10,03,32,5.30
2015,03,10,03,33,5.30
2015,03,10,03,34,5.30
2015,03,10,03,35,5.30
2015,03,10,03,36,5.30
2015,03,10,03,37,5.30
2015,03,10,03,38,5.30
2015,03,10,03,39,5.40
2015,03,10,03,40,5.40
2015,03,10,03,41,5.40
2015,03,10,03,42,5.40
2015,03,10,03,43,5.50
2015,03,10,03,44,5.50
2015,03,10,03,45,5.50
2015,03,10,03,46,5.50
2015,03,10,03,47,5.60
2015,03,10,03,48,5.60
2015,03,10,03,49,5.60
2015,03,10,03,50,5.60
2015,03,10,03,51,5.60
2015,03,10,03,52,5.60
2015,03,10,03,53,5.60
2015,03,10,03,54,5.60
2015,03,10,03,55,5.60
2015,03,10,03,56,5.60
2015,03,10,03,57,5.60
2015,03,10,03,58,5.60
2015,03,10,03,59,5.60
2015,03,10,04,00,5.60
2015,03,10,04,01,5.70
2015,03,10,04,02,5.70
2015,03,10,04,03,5.70
2015,03,10,04,04,5.70
2015,03,10,04,05,5.70
2015,03,10,04,06,5.70
2015,03,10,04,07,5.70
2015,03,10,04,08,5.70
2015,03,10,04,09,5.70
2015,03,10,04,10,5.70
2015,03,10,04,11,5.80
2015,03,10,04,12,5.80
2015,03,10,04,13,5.80
2015,03,10,04,14,5.80
2015,03,10,04,15,5.80
2015,03,10,04,16,5.80
2015,03,10,04,17,5.80
2015,03,10,04,18,5.80
2015,03,10,04,19,5.80
2015,03,10,04,20,5.80
2015,03,10,04,21,5.80
2015,03,10,04,22,5.80
2015,03,10,04,23,5.80
2015,03,10,04,24,5.80
2015,03,10,04,25,5.80
2015,03,10,04,26,5.80
2015,03,10,04,27,5.80
2015,03,10,04,28,5.80
2015,03,10,04,29,5.80
2015,03,10,04,30,5.80
2015,03,10,04,31,5.80
2015,03,10,04,32,5.80
2015,03,10,04,33,5.80
2015,03,10,04,34,5.80
2015,03,10,04,35,5.90
2015,03,10,04,36,5.90
2015,03,10,04,37,5.90
2015,03,10,04,38,5.90
2015,03,10,04,39,5.90
2015,03,10,04,40,5.90
2015,03,10,04,41,5.90
2015,03,10,04,42,5.90
2015,03,10,04,43,5.90
2015,03,10,04,44,5.90
2015,03,10,04,45,5.90
2015,03,10,04,46,5.90
2015,03,10,04,47,5.90
2015,03,10,04,48,5.90
2015,03,10,04,49,5.90
2015,03,10,04,50,5.90
2015,03,10,04,51,5.90
2015,03,10,04,52,5.90
2015,03,10,04,53,5.90
2015,03,10,04,54,6.00
2015,03,10,04,55,6.00
2015,03,10,04,56,6.00
2015,03,10,04,57,6.00
2015,03,10,04,58,6.00
2015,03,10,04,59,6.00
2015,03,10,05,00,6.00
2015,03,10,05,01,6.00
2015,03,10,05,02,6.00
2015,03,10,05,03,6.00
2015,03,10,05,04,6.00
2015,03,10,05,05,6.00
2015,03,10,05,06,6.00
2015,03,10,05,07,6.00
2015,03,10,05,08,6.00
2015,03,10,05,09,6.00
2015,03,10,05,10,6.00
2015,03,10,05,11,6.00
2015,03,10,05,12,6.00
2015,03,10,05,13,6.00
2015,03,10,05,14,6.00
2015,03,10,05,15,6.10
2015,03,10,05,16,6.00
2015,03,10,05,17,6.10
2015,03,10,05,18,6.10
2015,03,10,05,19,6.10
2015,03,10,05,20,6.10
2015,03,10,05,21,6.10
2015,03,10,05,22,6.10
2015,03,10,05,23,6.10
2015,03,10,05,24,6.10
2015,03,10,05,25,6.10
2015,03,10,05,26,6.10
2015,03,10,05,27,6.10
2015,03,10,05,28,6.10
2015,03,10,05,29,6.10
2015,03,10,05,30,6.10
2015,03,10,05,31,6.10
2015,03,10,05,32,6.10
2015,03,10,05,33,6.10
2015,03,10,05,34,6.10
2015,03,10,05,35,6.10
2015,03,10,05,36,6.10
2015,03,10,05,37,6.10
2015,03,10,05,38,6.20
2015,03,10,05,39,6.20
2015,03,10,05,40,6.20
2015,03,10,05,41,6.20
2015,03,10,05,42,6.20
2015,03,10,05,43,6.20
2015,03,10,05,44,6.20
2015,03,10,05,45,6.20
2015,03,10,05,46,6.20
2015,03,10,05,47,6.20
2015,03,10,05,48,6.20
2015,03,10,05,49,6.20
2015,03,10,05,50,6.20
2015,03,10,05,51,6.20
2015,03,10,05,52,6.20
2015,03,10,05,53,6.20
2015,03,10,05,54,6.20
2015,03,10,05,55,6.20
2015,03,10,05,56,6.20
2015,03,10,05,57,6.20
2015,03,10,05,58,6.20
2015,03,10,05,59,6.20
2015,03,10,06,00,6.20
2015,03,10,06,01,6.20
2015,03,10,06,02,6.10
2015,03,10,06,03,6.10
2015,03,10,06,04,6.10
2015,03,10,06,05,6.10
2015,03,10,06,06,6.10
2015,03,10,06,07,6.10
2015,03,10,06,08,6.10
2015,03,10,06,09,6.10
2015,03,10,06,10,6.10
2015,03,10,06,11,6.10
2015,03,10,06,12,6.10
2015,03,10,06,13,6.10
2015,03,10,06,14,6.10
2015,03,10,06,15,6.10
2015,03,10,06,16,6.10
2015,03,10,06,17,6.10
2015,03,10,06,18,6.10
2015,03,10,06,19,6.10
2015,03,10,06,20,6.10
2015,03,10,06,21,6.00
2015,03,10,06,22,6.00
2015,03,10,06,23,6.00
2015,03,10,06,24,6.00
2015,03,10,06,25,6.00
2015,03,10,06,26,6.00
2015,03,10,06,27,6.00
2015,03,10,06,28,6.00
2015,03,10,06,29,6.00
2015,03,10,06,30,6.00
2015,03,10,06,31,6.00
2015,03,10,06,32,6.00
2015,03,10,06,33,6.00
2015,03,10,06,34,6.00
2015,03,10,06,35,5.90
2015,03,10,06,36,5.90
2015,03,10,06,37,5.90
2015,03,10,06,38,5.90
2015,03,10,06,39,5.90
2015,03,10,06,40,5.90
2015,03,10,06,41,5.90
2015,03,10,06,42,5.90
2015,03,10,06,43,5.90
2015,03,10,06,44,5.90
2015,03,10,06,45,5.90
2015,03,10,06,46,5.90
2015,03,10,06,47,5.90
2015,03,10,06,48,5.90
2015,03,10,06,49,5.90
2015,03,10,06,50,5.90
2015,03,10,06,51,5.90
2015,03,10,06,52,5.90
2015,03,10,06,53,5.90
2015,03,10,06,54,5.90
2015,03,10,06,55,5.90
2015,03,10,06,56,5.90
2015,03,10,06,57,5.90
2015,03,10,06,58,5.90
2015,03,10,06,59,5.90
2015,03,10,07,00,5.90
2015,03,10,07,01,5.90
2015,03,10,07,02,5.90
2015,03,10,07,03,5.90
2015,03,10,07,04,5.90
2015,03,10,07,05,5.90
2015,03,10,07,06,5.90
2015,03,10,07,07,5.90
2015,03,10,07,08,5.90
2015,03,10,07,09,5.90
2015,03,10,07,10,5.90
2015,03,10,07,11,5.90
2015,03,10,07,12,5.90
2015,03,10,07,13,5.90
2015,03,10,07,14,5.90
2015,03,10,07,15,5.90
2015,03,10,07,16,5.90
2015,03,10,07,17,5.90
2015,03,10,07,18,5.90
2015,03,10,07,19,5.90
2015,03,10,07,20,5.90
2015,03,10,07,21,5.80
2015,03,10,07,22,5.80
2015,03,10,07,23,5.80
2015,03,10,07,24,5.80
2015,03,10,07,25,5.80
2015,03,10,07,26,5.80
2015,03,10,07,27,5.80
2015,03,10,07,28,5.80
2015,03,10,07,29,5.80
2015,03,10,07,30,5.80
2015,03,10,07,31,5.80
2015,03,10,07,32,5.80
2015,03,10,07,33,5.80
2015,03,10,07,34,5.80
2015,03,10,07,35,5.80
2015,03,10,07,36,5.80
2015,03,10,07,37,5.80
2015,03,10,07,38,5.80
2015,03,10,07,39,5.80
2015,03,10,07,40,5.80
2015,03,10,07,41,5.80
2015,03,10,07,42,5.80
2015,03,10,07,43,5.80
2015,03,10,07,44,5.80
2015,03,10,07,45,5.80
2015,03,10,07,46,5.80
2015,03,10,07,47,5.80
2015,03,10,07,48,5.80
2015,03,10,07,49,5.80
2015,03,10,07,50,5.80
2015,03,10,07,51,5.80
2015,03,10,07,52,5.80
2015,03,10,07,53,5.80
2015,03,10,07,54,5.80
2015,03,10,07,55,5.80
2015,03,10,07,56,5.80
2015,03,10,07,57,5.80
2015,03,10,07,58,5.80
2015,03,10,07,59,5.80
2015,03,10,08,00,5.80
2015,03,10,08,01,5.80
2015,03,10,08,02,5.80
2015,03,10,08,03,5.80
2015,03,10,08,04,5.80
2015,03,10,08,05,5.80
2015,03,10,08,06,5.80
2015,03,10,08,07,5.80
2015,03,10,08,08,5.80
2015,03,10,08,09,5.80
2015,03,10,08,10,5.80
2015,03,10,08,11,5.80
2015,03,10,08,12,5.80
2015,03,10,08,13,5.80
2015,03,10,08,14,5.80
2015,03,10,08,15,5.80
2015,03,10,08,16,5.90
2015,03,10,08,17,5.90
2015,03,10,08,18,5.90
2015,03,10,08,19,5.90
2015,03,10,08,20,5.90
2015,03,10,08,21,5.90
2015,03,10,08,22,5.90
2015,03,10,08,23,5.90
2015,03,10,08,24,5.90
2015,03,10,08,25,5.90
2015,03,10,08,26,5.90
2015,03,10,08,27,5.90
2015,03,10,08,28,5.90
2015,03,10,08,29,5.90
2015,03,10,08,30,5.90
2015,03,10,08,31,5.90
2015,03,10,08,32,5.90
2015,03,10,08,33,5.90
2015,03,10,08,34,5.90
2015,03,10,08,35,5.90
2015,03,10,08,36,5.90
2015,03,10,08,37,5.90
2015,03,10,08,38,5.90
2015,03,10,08,39,5.90
2015,03,10,08,40,5.90
2015,03,10,08,41,5.90
2015,03,10,08,42,6.00
2015,03,10,08,43,6.00
2015,03,10,08,44,6.00
2015,03,10,08,45,6.00
2015,03,10,08,46,6.00
2015,03,10,08,47,6.00
2015,03,10,08,48,6.00
2015,03,10,08,49,6.00
2015,03,10,08,50,6.00
2015,03,10,08,51,6.00
2015,03,10,08,52,6.00
2015,03,10,08,53,6.00
2015,03,10,08,54,6.00
2015,03,10,08,55,6.00
2015,03,10,08,56,6.00
2015,03,10,08,57,6.00
2015,03,10,08,58,6.00
2015,03,10,08,59,6.00
2015,03,10,09,00,6.00
2015,03,10,09,01,6.00
2015,03,10,09,02,6.10
2015,03,10,09,03,6.10
2015,03,10,09,04,6.10
2015,03,10,09,05,6.10
2015,03,10,09,06,6.10
2015,03,10,09,07,6.10
2015,03,10,09,08,6.10
2015,03,10,09,09,6.10
2015,03,10,09,10,6.10
2015,03,10,09,11,6.10
2015,03,10,09,12,6.10
2015,03,10,09,13,6.10
2015,03,10,09,14,6.10
2015,03,10,09,15,6.10
2015,03,10,09,16,6.10
2015,03,10,09,17,6.10
2015,03,10,09,18,6.20
2015,03,10,09,19,6.20
2015,03,10,09,20,6.20
2015,03,10,09,21,6.20
2015,03,10,09,22,6.20
2015,03,10,09,23,6.20
2015,03,10,09,24,6.20
2015,03,10,09,25,6.20
2015,03,10,09,26,6.20
2015,03,10,09,27,6.20
2015,03,10,09,28,6.20
2015,03,10,09,29,6.20
2015,03,10,09,30,6.20
2015,03,10,09,31,6.20
2015,03,10,09,32,6.20
2015,03,10,09,33,6.20
2015,03,10,09,34,6.20
2015,03,10,09,35,6.20
2015,03,10,09,36,6.30
2015,03,10,09,37,6.30
2015,03,10,09,38,6.30
2015,03,10,09,39,6.30
2015,03,10,09,40,6.30
2015,03,10,09,41,6.30
2015,03,10,09,42,6.30
2015,03,10,09,43,6.30
2015,03,10,09,44,6.30
2015,03,10,09,45,6.30
2015,03,10,09,46,6.30
2015,03,10,09,47,6.30
2015,03,10,09,48,6.30
2015,03,10,09,49,6.40
2015,03,10,09,50,6.30
2015,03,10,09,51,6.30
2015,03,10,09,52,6.30
2015,03,10,09,53,6.30
2015,03,10,09,54,6.30
2015,03,10,09,55,6.30
2015,03,10,09,56,6.30
2015,03,10,09,57,6.30
2015,03,10,09,58,6.30
2015,03,10,09,59,6.30
2015,03,10,10,00,6.30
2015,03,10,10,01,6.40
2015,03,10,10,02,6.40
2015,03,10,10,03,6.40
2015,03,10,10,04,6.40
2015,03,10,10,05,6.40
2015,03,10,10,06,6.40
2015,03,10,10,07,6.40
2015,03,10,10,08,6.40
2015,03,10,10,09,6.40
2015,03,10,10,10,6.40
2015,03,10,10,11,6.40
2015,03,10,10,12,6.40
2015,03,10,10,13,6.40
2015,03,10,10,14,6.40
2015,03,10,10,15,6.50
2015,03,10,10,16,6.50
2015,03,10,10,17,6.50
2015,03,10,10,18,6.50
2015,03,10,10,19,6.50
2015,03,10,10,20,6.50
2015,03,10,10,21,6.50
2015,03,10,10,22,6.50
2015,03,10,10,23,6.50
2015,03,10,10,24,6.50
2015,03,10,10,25,6.50
2015,03,10,10,26,6.50
2015,03,10,10,27,6.50
2015,03,10,10,28,6.50
2015,03,10,10,29,6.50
2015,03,10,10,30,6.50
2015,03,10,10,31,6.60
2015,03,10,10,32,6.60
2015,03,10,10,33,6.60
2015,03,10,10,34,6.60
2015,03,10,10,35,6.60
2015,03,10,10,36,6.60
2015,03,10,10,37,6.60
2015,03,10,10,38,6.60
2015,03,10,10,39,6.60
2015,03,10,10,40,6.60
2015,03,10,10,41,6.70
2015,03,10,10,42,6.70
2015,03,10,10,43,6.70
2015,03,10,10,44,6.70
2015,03,10,10,45,6.70
2015,03,10,10,46,6.70
2015,03,10,10,47,6.70
2015,03,10,10,48,6.70
2015,03,10,10,49,6.70
2015,03,10,10,50,6.70
2015,03,10,10,51,6.70
2015,03,10,10,52,6.70
2015,03,10,10,53,6.70
2015,03,10,10,54,6.70
2015,03,10,10,55,6.70
2015,03,10,10,56,6.70
2015,03,10,10,57,6.70
2015,03,10,10,58,6.70
2015,03,10,10,59,6.70
2015,03,10,11,00,6.70
2015,03,10,11,01,6.70
2015,03,10,11,02,6.70
2015,03,10,11,03,6.70
2015,03,10,11,04,6.80
2015,03,10,11,05,6.80
2015,03,10,11,06,6.80
2015,03,10,11,07,6.80
2015,03,10,11,08,6.80
2015,03,10,11,09,6.90
2015,03,10,11,10,6.90
2015,03,10,11,11,6.90
2015,03,10,11,12,6.90
2015,03,10,11,13,6.90
2015,03,10,11,14,6.90
2015,03,10,11,15,6.90
2015,03,10,11,16,6.90
2015,03,10,11,17,6.90
2015,03,10,11,18,6.90
2015,03,10,11,19,7.00
2015,03,10,11,20,7.00
2015,03,10,11,21,7.00
2015,03,10,11,22,7.00
2015,03,10,11,23,7.00
2015,03,10,11,24,7.10
2015,03,10,11,25,7.10
2015,03,10,11,26,7.10
2015,03,10,11,27,7.10
2015,03,10,11,28,7.10
2015,03,10,11,29,7.20
2015,03,10,11,30,7.20
2015,03,10,11,31,7.30
2015,03,10,11,32,7.30
2015,03,10,11,33,7.30
2015,03,10,11,34,7.40
2015,03,10,11,35,7.40
2015,03,10,11,36,7.50
2015,03,10,11,37,7.50
2015,03,10,11,38,7.60
2015,03,10,11,39,7.60
2015,03,10,11,40,7.70
2015,03,10,11,41,7.70
2015,03,10,11,42,7.70
2015,03,10,11,43,7.70
2015,03,10,11,44,7.80
2015,03,10,11,45,7.80
2015,03,10,11,46,7.80
2015,03,10,11,47,7.80
2015,03,10,11,48,7.90
2015,03,10,11,49,7.90
2015,03,10,11,50,8.00
2015,03,10,11,51,8.00
2015,03,10,11,52,8.10
2015,03,10,11,53,8.20
2015,03,10,11,54,8.20
2015,03,10,11,55,8.20
2015,03,10,11,56,8.30
2015,03,10,11,57,8.30
2015,03,10,11,58,8.40
2015,03,10,11,59,8.50
2015,03,10,12,00,8.60
2015,03,10,12,01,8.70
2015,03,10,12,02,8.70
2015,03,10,12,03,8.80
2015,03,10,12,04,8.80
2015,03,10,12,05,8.80
2015,03,10,12,06,8.90
2015,03,10,12,07,9.00
2015,03,10,12,08,9.00
2015,03,10,12,09,9.00
2015,03,10,12,10,9.10
2015,03,10,12,11,9.10
2015,03,10,12,12,9.20
2015,03,10,12,13,9.20
2015,03,10,12,14,9.30
2015,03,10,12,15,9.30
2015,03,10,12,16,9.30
2015,03,10,12,17,9.30
2015,03,10,12,18,9.20
2015,03,10,12,19,9.20
2015,03,10,12,20,9.20
2015,03,10,12,21,9.20
2015,03,10,12,22,9.20
2015,03,10,12,23,9.20
2015,03,10,12,24,9.30
2015,03,10,12,25,9.30
2015,03,10,12,26,9.40
2015,03,10,12,27,9.50
2015,03,10,12,28,9.50
2015,03,10,12,29,9.60
2015,03,10,12,30,9.60
2015,03,10,12,31,9.70
2015,03,10,12,32,9.70
2015,03,10,12,33,9.80
2015,03,10,12,34,9.80
2015,03,10,12,35,10.00
2015,03,10,12,36,10.10
2015,03,10,12,37,10.20
2015,03,10,12,38,10.30
2015,03,10,12,39,10.40
2015,03,10,12,40,10.40
2015,03,10,12,41,10.50
2015,03,10,12,42,10.50
2015,03,10,12,43,10.60
2015,03,10,12,44,10.60
2015,03,10,12,45,10.60
2015,03,10,12,46,10.60
2015,03,10,12,47,10.60
2015,03,10,12,48,10.60
2015,03,10,12,49,10.60
2015,03,10,12,50,10.60
2015,03,10,12,51,10.70
2015,03,10,12,52,10.70
2015,03,10,12,53,10.70
2015,03,10,12,54,10.80
2015,03,10,12,55,10.80
2015,03,10,12,56,10.80
2015,03,10,12,57,10.80
2015,03,10,12,58,10.80
2015,03,10,12,59,10.80
2015,03,10,13,00,10.90
2015,03,10,13,01,10.90
2015,03,10,13,02,11.00
2015,03,10,13,03,11.00
2015,03,10,13,04,11.00
2015,03,10,13,05,11.10
2015,03,10,13,06,11.10
2015,03,10,13,07,11.10
2015,03,10,13,08,11.20
2015,03,10,13,09,11.20
2015,03,10,13,10,11.20
2015,03,10,13,11,11.20
2015,03,10,13,12,11.20
2015,03,10,13,13,11.20
2015,03,10,13,14,11.20
2015,03,10,13,15,11.20
2015,03,10,13,16,11.30
2015,03,10,13,17,11.30
2015,03,10,13,18,11.40
2015,03,10,13,19,11.40
2015,03,10,13,20,11.40
2015,03,10,13,21,11.40
2015,03,10,13,22,11.50
2015,03,10,13,23,11.50
2015,03,10,13,24,11.50
2015,03,10,13,25,11.60
2015,03,10,13,26,11.60
2015,03,10,13,27,11.70
2015,03,10,13,28,11.70
2015,03,10,13,29,11.70
2015,03,10,13,30,11.80
2015,03,10,13,31,11.80
2015,03,10,13,32,11.80
2015,03,10,13,33,11.90
2015,03,10,13,34,11.90
2015,03,10,13,35,11.90
2015,03,10,13,36,11.90
2015,03,10,13,37,11.90
2015,03,10,13,38,12.00
2015,03,10,13,39,12.00
2015,03,10,13,40,12.00
2015,03,10,13,41,12.00
2015,03,10,13,42,11.90
2015,03,10,13,43,11.90
2015,03,10,13,44,11.90
2015,03,10,13,45,11.90
2015,03,10,13,46,11.90
2015,03,10,13,47,11.90
2015,03,10,13,48,11.90
2015,03,10,13,49,11.90
2015,03,10,13,50,11.90
2015,03,10,13,51,11.90
2015,03,10,13,52,12.00
2015,03,10,13,53,12.00
2015,03,10,13,54,12.10
2015,03,10,13,55,12.10
2015,03,10,13,56,12.10
2015,03,10,13,57,12.10
2015,03,10,13,58,12.10
2015,03,10,13,59,12.10
2015,03,10,14,00,12.10
2015,03,10,14,01,12.10
2015,03,10,14,02,12.10
2015,03,10,14,03,12.10
2015,03,10,14,04,12.10
2015,03,10,14,05,12.10
2015,03,10,14,06,12.10
2015,03,10,14,07,12.10
2015,03,10,14,08,12.10
2015,03,10,14,09,12.10
2015,03,10,14,10,12.10
2015,03,10,14,11,12.20
2015,03,10,14,12,12.20
2015,03,10,14,13,12.20
2015,03,10,14,14,12.20
2015,03,10,14,15,12.20
2015,03,10,14,16,12.20
2015,03,10,14,17,12.20
2015,03,10,14,18,12.20
2015,03,10,14,19,12.30
2015,03,10,14,20,12.30
2015,03,10,14,21,12.30
2015,03,10,14,22,12.40
2015,03,10,14,23,12.40
2015,03,10,14,24,12.50
2015,03,10,14,25,12.60
2015,03,10,14,26,12.60
2015,03,10,14,27,12.70
2015,03,10,14,28,12.70
2015,03,10,14,29,12.70
2015,03,10,14,30,12.80
2015,03,10,14,31,12.80
2015,03,10,14,32,12.80
2015,03,10,14,33,12.80
2015,03,10,14,34,12.80
2015,03,10,14,35,12.80
2015,03,10,14,36,12.80
2015,03,10,14,37,12.70
2015,03,10,14,38,12.70
2015,03,10,14,39,12.60
2015,03,10,14,40,12.60
2015,03,10,14,41,12.60
2015,03,10,14,42,12.60
2015,03,10,14,43,12.50
2015,03,10,14,44,12.50
2015,03,10,14,45,12.50
2015,03,10,14,46,12.60
2015,03,10,14,47,12.50
2015,03,10,14,48,12.50
2015,03,10,14,49,12.60
2015,03,10,14,50,12.60
2015,03,10,14,51,12.60
2015,03,10,14,52,12.60
2015,03,10,14,53,12.60
2015,03,10,14,54,12.60
2015,03,10,14,55,12.70
2015,03,10,14,56,12.70
2015,03,10,14,57,12.70
2015,03,10,14,58,12.70
2015,03,10,14,59,12.70
2015,03,10,15,00,12.70
2015,03,10,15,01,12.70
2015,03,10,15,02,12.80
2015,03,10,15,03,12.80
2015,03,10,15,04,12.80
2015,03,10,15,05,12.80
2015,03,10,15,06,12.90
2015,03,10,15,07,12.90
2015,03,10,15,08,12.90
2015,03,10,15,09,12.90
2015,03,10,15,10,12.90
2015,03,10,15,11,12.90
2015,03,10,15,12,12.90
2015,03,10,15,13,12.90
2015,03,10,15,14,12.90
2015,03,10,15,15,12.90
2015,03,10,15,16,12.90
2015,03,10,15,17,12.90
2015,03,10,15,18,12.90
2015,03,10,15,19,13.00
2015,03,10,15,20,13.00
2015,03,10,15,21,13.10
2015,03,10,15,22,13.10
2015,03,10,15,23,13.10
2015,03,10,15,24,13.20
2015,03,10,15,25,13.30
2015,03,10,15,26,13.30
2015,03,10,15,27,13.40
2015,03,10,15,28,13.40
2015,03,10,15,29,13.50
2015,03,10,15,30,13.50
2015,03,10,15,31,13.50
2015,03,10,15,32,13.60
2015,03,10,15,33,13.60
2015,03,10,15,34,13.70
2015,03,10,15,35,13.70
2015,03,10,15,36,13.70
2015,03,10,15,37,13.80
2015,03,10,15,38,13.80
2015,03,10,15,39,13.80
2015,03,10,15,40,13.80
2015,03,10,15,41,13.80
2015,03,10,15,42,13.80
2015,03,10,15,43,13.80
2015,03,10,15,44,13.80
2015,03,10,15,45,13.80
2015,03,10,15,46,13.80
2015,03,10,15,47,13.80
2015,03,10,15,48,13.80
2015,03,10,15,49,13.80
2015,03,10,15,50,13.70
2015,03,10,15,51,13.70
2015,03,10,15,52,13.70
2015,03,10,15,53,13.70
2015,03,10,15,54,13.70
2015,03,10,15,55,13.70
2015,03,10,15,56,13.70
2015,03,10,15,57,13.70
2015,03,10,15,58,13.70
2015,03,10,15,59,13.70
2015,03,10,16,00,13.70
2015,03,10,16,01,13.70
2015,03,10,16,02,13.60
2015,03,10,16,03,13.60
2015,03,10,16,04,13.60
2015,03,10,16,05,13.60
2015,03,10,16,06,13.60
2015,03,10,16,07,13.60
2015,03,10,16,08,13.50
2015,03,10,16,09,13.50
2015,03,10,16,10,13.50
2015,03,10,16,11,13.40
2015,03,10,16,12,13.40
2015,03,10,16,13,13.40
2015,03,10,16,14,13.40
2015,03,10,16,15,13.40
2015,03,10,16,16,13.40
2015,03,10,16,17,13.40
2015,03,10,16,18,13.40
2015,03,10,16,19,13.40
2015,03,10,16,20,13.30
2015,03,10,16,21,13.30
2015,03,10,16,22,13.30
2015,03,10,16,23,13.30
2015,03,10,16,24,13.20
2015,03,10,16,25,13.20
2015,03,10,16,26,13.20
2015,03,10,16,27,13.20
2015,03,10,16,28,13.20
2015,03,10,16,29,13.20
2015,03,10,16,30,13.20
2015,03,10,16,31,13.20
2015,03,10,16,32,13.20
2015,03,10,16,33,13.20
2015,03,10,16,34,13.20
2015,03,10,16,35,13.20
2015,03,10,16,36,13.20
2015,03,10,16,37,13.20
2015,03,10,16,38,13.20
2015,03,10,16,39,13.20
2015,03,10,16,40,13.20
2015,03,10,16,41,13.20
2015,03,10,16,42,13.20
2015,03,10,16,43,13.10
2015,03,10,16,44,13.10
2015,03,10,16,45,13.10
2015,03,10,16,46,13.10
2015,03,10,16,47,13.10
2015,03,10,16,48,13.20
2015,03,10,16,49,13.20
2015,03,10,16,50,13.10
2015,03,10,16,51,13.10
2015,03,10,16,52,13.10
2015,03,10,16,53,13.10
2015,03,10,16,54,13.10
2015,03,10,16,55,13.10
2015,03,10,16,56,13.10
2015,03,10,16,57,13.10
2015,03,10,16,58,13.10
2015,03,10,16,59,13.10
2015,03,10,17,00,13.20
2015,03,10,17,01,13.20
2015,03,10,17,02,13.10
2015,03,10,17,03,13.10
2015,03,10,17,04,13.00
2015,03,10,17,05,13.00
2015,03,10,17,06,12.90
2015,03,10,17,07,12.80
2015,03,10,17,08,12.80
2015,03,10,17,09,12.80
2015,03,10,17,10,12.80
2015,03,10,17,11,12.80
2015,03,10,17,12,12.70
2015,03,10,17,13,12.70
2015,03,10,17,14,12.60
2015,03,10,17,15,12.60
2015,03,10,17,16,12.50
2015,03,10,17,17,12.50
2015,03,10,17,18,12.40
2015,03,10,17,19,12.40
2015,03,10,17,20,12.30
2015,03,10,17,21,12.30
2015,03,10,17,22,12.20
2015,03,10,17,23,12.20
2015,03,10,17,24,12.20
2015,03,10,17,25,12.20
2015,03,10,17,26,12.10
2015,03,10,17,27,12.10
2015,03,10,17,28,12.10
2015,03,10,17,29,12.10
2015,03,10,17,30,12.00
2015,03,10,17,31,11.90
2015,03,10,17,32,11.90
2015,03,10,17,33,11.90
2015,03,10,17,34,11.80
2015,03,10,17,35,11.80
2015,03,10,17,36,11.70
2015,03,10,17,37,11.70
2015,03,10,17,38,11.70
2015,03,10,17,39,11.60
2015,03,10,17,40,11.60
2015,03,10,17,41,11.50
2015,03,10,17,42,11.50
2015,03,10,17,43,11.40
2015,03,10,17,44,11.40
2015,03,10,17,45,11.40
2015,03,10,17,46,11.40
2015,03,10,17,47,11.30
2015,03,10,17,48,11.30
2015,03,10,17,49,11.30
2015,03,10,17,50,11.30
2015,03,10,17,51,11.30
2015,03,10,17,52,11.20